UAL210 EGKK-EGCC

Flight info

Callsign UAL210
Flight time 0h 43m
Altitude 24000
Route LAM N57 WELIN T420 ELVOS
Aircraft B738/M-SDE2E3FGHIRWXY/LB1

Departure

Time 2026-05-07 11:16
Airport London Gatwick Airport (EGKK)

Arrival

Time 2026-05-07 11:59
Airport Manchester Airport (EGCC)
Time Latitude Longitude Altitude Speed Heading
2026-05-07 10:36 51.15478 -0.17026 213 ft 0 kts 347°
2026-05-07 10:57 51.15475 -0.17025 214 ft 2 kts 347°
2026-05-07 10:58 51.15466 -0.17022 213 ft 2 kts 348°
2026-05-07 10:58 51.15452 -0.17017 210 ft 2 kts 348°
2026-05-07 10:58 51.15439 -0.17013 214 ft 2 kts 345°
2026-05-07 10:58 51.15431 -0.17009 212 ft 1 kts 325°
2026-05-07 10:59 51.15426 -0.17003 209 ft 1 kts 275°
2026-05-07 10:59 51.15425 -0.16995 209 ft 1 kts 261°
2026-05-07 10:59 51.15426 -0.16986 213 ft 1 kts 258°
2026-05-07 10:59 51.15426 -0.16985 213 ft 0 kts 258°
2026-05-07 11:06 51.15424 -0.17001 210 ft 4 kts 258°
2026-05-07 11:06 51.15415 -0.17069 210 ft 8 kts 257°
2026-05-07 11:07 51.15398 -0.17151 210 ft 8 kts 244°
2026-05-07 11:07 51.15379 -0.17229 203 ft 7 kts 251°
2026-05-07 11:07 51.15373 -0.17258 213 ft 0 kts 252°
2026-05-07 11:07 51.15362 -0.17317 206 ft 7 kts 252°
2026-05-07 11:08 51.15328 -0.17368 206 ft 7 kts 206°
2026-05-07 11:08 51.15296 -0.17464 203 ft 16 kts 261°
2026-05-07 11:08 51.15274 -0.17639 203 ft 16 kts 257°
2026-05-07 11:08 51.15250 -0.17809 203 ft 15 kts 257°
2026-05-07 11:09 51.15228 -0.17973 213 ft 15 kts 258°
2026-05-07 11:09 51.15207 -0.18129 203 ft 14 kts 257°
2026-05-07 11:09 51.15187 -0.18280 214 ft 14 kts 260°
2026-05-07 11:09 51.15172 -0.18424 208 ft 13 kts 260°
2026-05-07 11:10 51.15153 -0.18563 208 ft 13 kts 257°
2026-05-07 11:10 51.15135 -0.18698 202 ft 12 kts 258°
2026-05-07 11:10 51.15116 -0.18837 207 ft 13 kts 257°
2026-05-07 11:10 51.15096 -0.18976 208 ft 13 kts 257°
2026-05-07 11:11 51.15077 -0.19112 207 ft 12 kts 257°
2026-05-07 11:11 51.15059 -0.19245 203 ft 12 kts 258°
2026-05-07 11:11 51.15041 -0.19380 212 ft 16 kts 258°
2026-05-07 11:11 51.15016 -0.19562 207 ft 17 kts 258°
2026-05-07 11:12 51.14991 -0.19740 203 ft 16 kts 257°
2026-05-07 11:12 51.14967 -0.19912 207 ft 16 kts 258°
2026-05-07 11:12 51.14944 -0.20077 208 ft 15 kts 257°
2026-05-07 11:12 51.14923 -0.20235 208 ft 14 kts 258°
2026-05-07 11:13 51.14902 -0.20384 202 ft 12 kts 256°
2026-05-07 11:13 51.14884 -0.20510 208 ft 12 kts 258°
2026-05-07 11:13 51.14860 -0.20619 209 ft 10 kts 230°
2026-05-07 11:13 51.14790 -0.20682 206 ft 18 kts 206°
2026-05-07 11:14 51.14724 -0.20719 203 ft 5 kts 180°
2026-05-07 11:14 51.14702 -0.20714 206 ft 0 kts 169°
2026-05-07 11:15 51.14652 -0.20697 209 ft 14 kts 168°
2026-05-07 11:15 51.14595 -0.20633 208 ft 10 kts 92°
2026-05-07 11:15 51.14620 -0.20445 208 ft 44 kts 78°
2026-05-07 11:15 51.14747 -0.19522 211 ft 124 kts 77°
2026-05-07 11:16 51.14971 -0.17903 480 ft 163 kts 77°
2026-05-07 11:16 51.15221 -0.16090 1384 ft 171 kts 79°
2026-05-07 11:16 51.15469 -0.14200 2108 ft 184 kts 78°
2026-05-07 11:16 51.15761 -0.12029 2379 ft 214 kts 78°
2026-05-07 11:17 51.16104 -0.09588 2673 ft 236 kts 77°
2026-05-07 11:17 51.16531 -0.06921 2958 ft 258 kts 68°
2026-05-07 11:17 51.17527 -0.04515 3729 ft 262 kts 50°
2026-05-07 11:17 51.18689 -0.02248 4551 ft 266 kts 50°
2026-05-07 11:18 51.19847 0.00071 4864 ft 268 kts 51°
2026-05-07 11:18 51.20981 0.02384 4903 ft 269 kts 52°
2026-05-07 11:18 51.22127 0.04747 4918 ft 270 kts 52°
2026-05-07 11:18 51.23285 0.07146 5320 ft 275 kts 52°
2026-05-07 11:19 51.24442 0.09553 6282 ft 273 kts 54°
2026-05-07 11:19 51.25240 0.12293 7051 ft 276 kts 79°
2026-05-07 11:19 51.25576 0.15323 7828 ft 279 kts 80°
2026-05-07 11:19 51.25922 0.18395 8617 ft 282 kts 80°
2026-05-07 11:20 51.26276 0.21490 9420 ft 285 kts 80°
2026-05-07 11:20 51.26641 0.24617 10165 ft 288 kts 80°
2026-05-07 11:20 51.27013 0.27777 10873 ft 291 kts 79°
2026-05-07 11:20 51.27420 0.30972 11589 ft 296 kts 73°
2026-05-07 11:21 51.28469 0.33786 12275 ft 302 kts 41°
2026-05-07 11:21 51.30333 0.35417 12704 ft 319 kts 13°
2026-05-07 11:21 51.32611 0.35450 12921 ft 340 kts 350°
2026-05-07 11:21 51.34983 0.34642 13427 ft 355 kts 343°
2026-05-07 11:22 51.37315 0.33232 14091 ft 360 kts 336°
2026-05-07 11:22 51.39619 0.31615 14815 ft 363 kts 335°
2026-05-07 11:22 51.41948 0.30001 15556 ft 366 kts 336°
2026-05-07 11:22 51.44285 0.28435 16259 ft 370 kts 336°
2026-05-07 11:23 51.46685 0.26867 16972 ft 374 kts 337°
2026-05-07 11:23 51.49111 0.25292 17680 ft 378 kts 337°
2026-05-07 11:23 51.51561 0.23703 18368 ft 382 kts 336°
2026-05-07 11:23 51.54039 0.22093 18958 ft 386 kts 336°
2026-05-07 11:24 51.56539 0.20466 19559 ft 389 kts 336°
2026-05-07 11:24 51.59058 0.18824 20168 ft 392 kts 336°
2026-05-07 11:24 51.61598 0.17165 20757 ft 396 kts 336°
2026-05-07 11:24 51.64133 0.15417 21367 ft 397 kts 330°
2026-05-07 11:25 51.66286 0.12699 22101 ft 392 kts 313°
2026-05-07 11:25 51.68167 0.09550 22976 ft 388 kts 312°
2026-05-07 11:25 51.70033 0.06420 23701 ft 387 kts 312°
2026-05-07 11:25 51.71915 0.03273 24063 ft 390 kts 313°
2026-05-07 11:26 51.73801 0.00134 24077 ft 389 kts 313°
2026-05-07 11:26 51.75686 -0.02991 24075 ft 388 kts 313°
2026-05-07 11:26 51.77573 -0.06115 24084 ft 389 kts 313°
2026-05-07 11:26 51.79464 -0.09243 24082 ft 389 kts 313°
2026-05-07 11:27 51.81356 -0.12374 24082 ft 389 kts 313°
2026-05-07 11:27 51.83250 -0.15512 24076 ft 390 kts 313°
2026-05-07 11:27 51.85152 -0.18666 24079 ft 391 kts 313°
2026-05-07 11:27 51.87045 -0.21809 24079 ft 392 kts 313°
2026-05-07 11:28 51.88948 -0.24974 24079 ft 392 kts 313°
2026-05-07 11:28 51.90851 -0.28142 24077 ft 393 kts 313°
2026-05-07 11:28 51.92757 -0.31319 24076 ft 393 kts 313°
2026-05-07 11:28 51.94639 -0.34460 24075 ft 393 kts 313°
2026-05-07 11:29 51.96544 -0.37645 24075 ft 393 kts 313°
2026-05-07 11:29 51.98446 -0.40828 24075 ft 393 kts 313°
2026-05-07 11:29 52.00341 -0.44004 24074 ft 392 kts 313°
2026-05-07 11:29 52.02238 -0.47187 24072 ft 392 kts 313°
2026-05-07 11:30 52.04134 -0.50372 24079 ft 392 kts 313°
2026-05-07 11:30 52.06029 -0.53559 24070 ft 392 kts 313°
2026-05-07 11:30 52.07920 -0.56746 24069 ft 392 kts 313°
2026-05-07 11:30 52.09816 -0.59944 24077 ft 392 kts 313°
2026-05-07 11:31 52.11707 -0.63137 24080 ft 392 kts 313°
2026-05-07 11:31 52.13604 -0.66347 24077 ft 393 kts 313°
2026-05-07 11:31 52.15497 -0.69551 24076 ft 393 kts 313°
2026-05-07 11:31 52.17393 -0.72767 24075 ft 393 kts 313°
2026-05-07 11:32 52.21186 -0.79209 24070 ft 394 kts 313°
2026-05-07 11:32 52.23080 -0.82433 24071 ft 394 kts 313°
2026-05-07 11:32 52.25064 -0.85508 24061 ft 395 kts 320°
2026-05-07 11:33 52.27343 -0.88018 24073 ft 395 kts 328°
2026-05-07 11:33 52.29677 -0.90295 24062 ft 396 kts 329°
2026-05-07 11:33 52.32049 -0.92581 24058 ft 396 kts 329°
2026-05-07 11:33 52.34418 -0.94880 24064 ft 396 kts 328°
2026-05-07 11:34 52.36781 -0.97201 24067 ft 396 kts 328°
2026-05-07 11:34 52.39139 -0.99538 24081 ft 396 kts 328°
2026-05-07 11:34 52.41498 -1.01890 24075 ft 397 kts 328°
2026-05-07 11:34 52.43858 -1.04249 24052 ft 397 kts 328°
2026-05-07 11:35 52.46187 -1.06579 24030 ft 388 kts 328°
2026-05-07 11:35 52.48474 -1.08868 23750 ft 383 kts 328°
2026-05-07 11:35 52.50726 -1.11139 23400 ft 378 kts 327°
2026-05-07 11:35 52.52955 -1.13401 22992 ft 375 kts 327°
2026-05-07 11:36 52.55161 -1.15642 22598 ft 371 kts 327°
2026-05-07 11:36 52.57346 -1.17860 22220 ft 367 kts 327°
2026-05-07 11:36 52.59510 -1.20051 21826 ft 364 kts 327°
2026-05-07 11:36 52.61662 -1.22229 21451 ft 361 kts 327°
2026-05-07 11:37 52.63792 -1.24388 21072 ft 358 kts 327°
2026-05-07 11:37 52.65910 -1.26536 20701 ft 355 kts 327°
2026-05-07 11:37 52.68009 -1.28670 20340 ft 353 kts 327°
2026-05-07 11:37 52.70091 -1.30787 19980 ft 351 kts 327°
2026-05-07 11:38 52.72143 -1.32875 19562 ft 351 kts 327°
2026-05-07 11:38 52.74247 -1.35015 19205 ft 350 kts 327°
2026-05-07 11:38 52.76314 -1.37120 18800 ft 349 kts 327°
2026-05-07 11:38 52.78352 -1.39197 18406 ft 348 kts 327°
2026-05-07 11:39 52.80414 -1.41301 17941 ft 347 kts 327°
2026-05-07 11:39 52.82463 -1.43395 17501 ft 345 kts 327°
2026-05-07 11:39 52.84501 -1.45480 17082 ft 343 kts 326°
2026-05-07 11:39 52.86528 -1.47556 16669 ft 341 kts 327°
2026-05-07 11:40 52.88538 -1.49617 16273 ft 339 kts 327°
2026-05-07 11:40 52.89889 -1.51004 16006 ft 338 kts 327°
2026-05-07 11:40 52.91882 -1.53051 15617 ft 336 kts 326°
2026-05-07 11:40 52.93863 -1.55088 15224 ft 334 kts 326°
2026-05-07 11:41 52.95832 -1.57117 14838 ft 333 kts 326°
2026-05-07 11:41 52.97798 -1.59143 14454 ft 332 kts 326°
2026-05-07 11:41 52.99756 -1.61164 14073 ft 331 kts 326°
2026-05-07 11:41 53.01706 -1.63176 13664 ft 329 kts 326°
2026-05-07 11:42 53.03621 -1.65156 13241 ft 326 kts 326°
2026-05-07 11:42 53.05494 -1.67183 12832 ft 317 kts 319°
2026-05-07 11:42 53.06972 -1.69803 12509 ft 306 kts 306°
2026-05-07 11:42 53.08318 -1.72539 12132 ft 306 kts 307°
2026-05-07 11:43 53.09681 -1.75246 11767 ft 303 kts 307°
2026-05-07 11:43 53.11039 -1.77903 11409 ft 299 kts 308°
2026-05-07 11:43 53.12385 -1.80526 11067 ft 297 kts 308°
2026-05-07 11:43 53.13726 -1.83133 10781 ft 295 kts 308°
2026-05-07 11:44 53.15054 -1.85715 10526 ft 292 kts 308°
2026-05-07 11:44 53.16365 -1.88267 10285 ft 288 kts 308°
2026-05-07 11:44 53.17650 -1.90772 10127 ft 281 kts 308°
2026-05-07 11:44 53.18919 -1.93247 9871 ft 280 kts 308°
2026-05-07 11:45 53.20180 -1.95708 9590 ft 277 kts 308°
2026-05-07 11:45 53.21466 -1.98092 9321 ft 276 kts 312°
2026-05-07 11:45 53.22793 -2.00382 9052 ft 274 kts 311°
2026-05-07 11:45 53.24116 -2.02627 8781 ft 268 kts 316°
2026-05-07 11:46 53.25746 -2.04088 8478 ft 268 kts 345°
2026-05-07 11:46 53.27591 -2.04100 8227 ft 268 kts 11°
2026-05-07 11:46 53.29393 -2.03342 7987 ft 267 kts 14°
2026-05-07 11:46 53.31176 -2.02498 7715 ft 266 kts 14°
2026-05-07 11:47 53.32954 -2.01636 7471 ft 266 kts 15°
2026-05-07 11:47 53.34720 -2.00767 7209 ft 263 kts 15°
2026-05-07 11:47 53.36437 -1.99844 6960 ft 262 kts 21°
2026-05-07 11:47 53.38122 -1.98694 6734 ft 263 kts 20°
2026-05-07 11:48 53.39838 -1.97547 6466 ft 268 kts 20°
2026-05-07 11:48 53.41586 -1.96385 6085 ft 271 kts 20°
2026-05-07 11:48 53.43315 -1.95235 5984 ft 262 kts 20°
2026-05-07 11:48 53.44995 -1.94118 5806 ft 258 kts 20°
2026-05-07 11:49 53.46675 -1.93006 5366 ft 264 kts 20°
2026-05-07 11:49 53.48402 -1.91868 5002 ft 268 kts 20°
2026-05-07 11:49 53.50126 -1.90736 4749 ft 259 kts 20°
2026-05-07 11:49 53.51781 -1.89659 4364 ft 253 kts 20°
2026-05-07 11:50 53.53426 -1.88598 3890 ft 251 kts 20°
2026-05-07 11:50 53.55001 -1.87600 3753 ft 234 kts 20°
2026-05-07 11:50 53.56513 -1.86645 3356 ft 232 kts 20°
2026-05-07 11:50 53.58062 -1.85963 3023 ft 232 kts 357°
2026-05-07 11:51 53.59583 -1.86697 3011 ft 228 kts 323°
2026-05-07 11:51 53.60564 -1.88595 3003 ft 206 kts 288°
2026-05-07 11:51 53.60677 -1.90859 3001 ft 191 kts 250°
2026-05-07 11:51 53.59960 -1.92608 2995 ft 181 kts 211°
2026-05-07 11:52 53.58761 -1.93132 3017 ft 182 kts 179°
2026-05-07 11:52 53.57486 -1.92955 3010 ft 184 kts 177°
2026-05-07 11:52 53.56244 -1.93311 3004 ft 181 kts 202°
2026-05-07 11:52 53.55079 -1.94148 2996 ft 182 kts 201°
2026-05-07 11:53 53.53897 -1.94917 3006 ft 185 kts 200°
2026-05-07 11:53 53.52685 -1.95702 3010 ft 185 kts 200°
2026-05-07 11:53 53.51493 -1.96476 3005 ft 183 kts 200°
2026-05-07 11:53 53.50310 -1.97253 3001 ft 185 kts 203°
2026-05-07 11:54 53.49336 -1.98616 3000 ft 186 kts 236°
2026-05-07 11:54 53.48650 -2.00451 2989 ft 185 kts 225°
2026-05-07 11:54 53.47767 -2.01990 3004 ft 184 kts 227°
2026-05-07 11:54 53.46956 -2.03664 3011 ft 180 kts 229°
2026-05-07 11:55 53.46194 -2.05258 2992 ft 170 kts 229°
2026-05-07 11:55 53.45466 -2.06762 3003 ft 164 kts 228°
2026-05-07 11:55 53.44749 -2.08234 2956 ft 163 kts 228°
2026-05-07 11:55 53.44021 -2.09727 2770 ft 168 kts 228°
2026-05-07 11:56 53.43293 -2.11224 2549 ft 161 kts 227°
2026-05-07 11:56 53.42599 -2.12649 2341 ft 155 kts 227°
2026-05-07 11:56 53.41918 -2.14044 2120 ft 155 kts 227°
2026-05-07 11:56 53.41243 -2.15433 1919 ft 149 kts 227°
2026-05-07 11:57 53.40607 -2.16740 1709 ft 141 kts 227°
2026-05-07 11:57 53.39993 -2.18004 1514 ft 139 kts 226°
2026-05-07 11:57 53.39371 -2.19281 1326 ft 141 kts 226°
2026-05-07 11:57 53.38755 -2.20546 1112 ft 139 kts 226°
2026-05-07 11:58 53.38133 -2.21825 934 ft 144 kts 228°
2026-05-07 11:58 53.37498 -2.23134 737 ft 145 kts 229°
2026-05-07 11:58 53.36862 -2.24443 533 ft 143 kts 228°
2026-05-07 11:58 53.36241 -2.25711 347 ft 141 kts 229°
2026-05-07 11:59 53.35644 -2.26936 264 ft 121 kts 231°
2026-05-07 11:59 53.35273 -2.27696 250 ft 56 kts 232°
2026-05-07 11:59 53.35097 -2.28064 238 ft 31 kts 231°
2026-05-07 11:59 53.34985 -2.28346 236 ft 28 kts 246°
2026-05-07 12:00 53.34947 -2.28599 232 ft 20 kts 265°
2026-05-07 12:00 53.34963 -2.28730 231 ft 11 kts 318°
2026-05-07 12:00 53.35029 -2.28712 231 ft 11 kts 42°
2026-05-07 12:00 53.35080 -2.28628 232 ft 9 kts 52°
2026-05-07 12:01 53.35120 -2.28534 230 ft 11 kts 54°
2026-05-07 12:01 53.35167 -2.28435 230 ft 11 kts 51°
2026-05-07 12:01 53.35212 -2.28341 232 ft 10 kts 50°
2026-05-07 12:01 53.35241 -2.28285 233 ft 4 kts 46°
2026-05-07 12:02 53.35269 -2.28246 236 ft 9 kts 35°
2026-05-07 12:02 53.35328 -2.28193 238 ft 9 kts 22°
2026-05-07 12:02 53.35391 -2.28164 237 ft 9 kts
2026-05-07 12:02 53.35453 -2.28149 237 ft 9 kts 12°
2026-05-07 12:03 53.35511 -2.28110 238 ft 9 kts 30°
2026-05-07 12:03 53.35561 -2.28032 239 ft 15 kts 49°
2026-05-07 12:03 53.35629 -2.27891 246 ft 14 kts 50°
2026-05-07 12:03 53.35684 -2.27779 246 ft 11 kts 51°
2026-05-07 12:04 53.35731 -2.27688 246 ft 10 kts 40°
2026-05-07 12:04 53.35796 -2.27660 246 ft 10 kts
2026-05-07 12:04 53.35863 -2.27650 246 ft 9 kts
2026-05-07 12:04 53.35928 -2.27639 246 ft 9 kts
2026-05-07 12:05 53.35964 -2.27632 246 ft 3 kts 11°
2026-05-07 12:05 53.35979 -2.27615 246 ft 1 kts 48°